User: anonymous   Login
Location: Frankfurt+(oder)
(51.7984°N, 12.2168°E)
Time: 22:26:41
(UTC+02:00)
Language:

ISS - Orbit

View from above orbital plane
View from above orbital plane
View from above satellite
View from above satellite

Ground track
Ground track

The orbit data is extracted from the following two-line orbital elements,

1 25544U 98067A   17208.61031099  .00016717  00000-0  10270-3 0  9037
2 25544  51.6373 196.8239 0006166  74.1686 286.0146 15.54224724 28032
Epoch (UTC): 27 July 2017 14:38:50
Eccentricity: 0.0006166
inclination: 51.6373°
perigee height: 400 km
apogee height: 408 km
right ascension of ascending node: 196.8239°
argument of perigee: 74.1686°
revolutions per day: 15.54224724
mean anomaly at epoch: 286.0146°
orbit number at epoch: 2803

The dashed part of the orbit path shows where the satellite is in the earth's shadow,  

DLR